Location: Bakov nad Jizerou
(50.4784°N, 14.9394°E)
Time: 07:35:41
(UTC+00:00)

Meteor 1-4 Rocket - Pass Details

Date: 16 June 2021
Orbit: 447 x 499 km, 81.2° (Epoch: 04 August)

Event Time Altitude Azimuth Distance (km) Brightness Sun altitude
Rises 22:04:04 0° 357° (N) 2,503 7.9 -15.1°
Reaches altitude 10° 22:06:28 10° 12° (NNE) 1,613 6.2 -15.2°
Maximum altitude 22:09:22 23° 68° (ENE) 1,005 4.2 -15.3°
Enters shadow 22:11:12 16° 111° (ESE) 1,278 4.4 -15.3°
